Vorticity
5 4 2 7 5 4 5 5 5 5 4 5 2 5 4 4 3 3 3 3 4 4 4 4 4 4 4 4 4 5 5 5 5 5 5 6 5 5 6 8 10 11 9 8
4 6 9 6 4 4 4 5 5 6 5 5 3 4 4 5 5 4 4 4 5 5 5 4 4 4 5 4 4 3 4 4 4 4 5 5 5 5 5 5 7 9 10 9
6 7 7 6 6 6 6 5 6 5 5 6 6 4 4 4 4 4 4 4 5 5 5 5 5 4 4 4 5 5 5 4 4 4 4 4 4 5 5 5 6 6 6 10
6 7 6 7 5 5 5 4 5 7 6 6 4 10 5 5 5 5 5 5 5 5 6 6 6 5 4 4 3 3 3 4 5 6 6 5 5 5 5 4 5 5 8 7
8 7 8 8 7 6 7 7 6 6 7 6 4 6 6 6 5 6 7 8 8 8 8 9 9 10 10 9 8 8 8 8 8 8 7 7 6 6 6 6 5 4 5 5
6 7 7 7 7 7 6 7 7 7 8 8 8 7 8 6 7 7 7 7 7 6 6 6 6 6 7 7 8 8 9 8 7 6 6 6 6 5 5 5 6 6 5 5
11 10 9 9 9 9 9 9 9 7 5 6 5 4 7 6 4 4 5 4 4 4 5 4 4 4 4 3 3 4 5 5 5 5 5 4 4 4 5 5 6 5 5 5
9 10 9 10 8 6 3 -0 -0 4 3 4 3 5 3 4 4 5 7 7 7 7 8 9 9 8 7 6 6 5 5 5 4 5 5 5 4 3 4 4 4 5 5 5
8 6 3 2 1 -2 3 5 6 8 6 8 6 8 10 10 13 14 14 14 15 15 15 14 14 14 15 15 14 12 10 7 9 8 6 7 6 5 3 3 4 4 5 7
8 8 5 4 3 6 5 10 17 17 17 16 13 13 13 11 10 9 8 7 8 7 7 7 7 7 6 6 7 7 9 11 13 12 10 10 10 11 9 6 5 5 4 7
9 9 11 13 15 16 15 13 11 11 9 8 9 12 6 6 6 6 5 4 3 2 3 5 5 5 6 7 8 6 4 6 8 9 8 10 12 9 9 7 6 7 7 6
14 13 13 11 11 11 10 9 7 6 8 4 5 5 4 5 5 5 5 5 4 3 3 3 3 3 3 3 4 6 7 7 5 4 6 5 5 6 9 7 8 7 8 7
5 8 9 10 7 5 4 3 4 5 6 5 4 4 4 4 4 4 4 4 3 3 3 3 3 4 5 5 5 5 6 6 5 5 4 3 5 7 8 7 7 6 7 7
10 9 8 6 6 5 5 4 4 4 5 5 4 6 6 5 5 6 6 6 6 6 6 5 5 5 5 6 6 7 7 7 8 10 11 11 10 10 11 10 9 10 7 9
8 6 6 6 6 7 7 7 8 7 7 7 8 9 9 9 8 8 7 8 8 7 7 7 8 9 9 9 10 11 11 11 12 13 14 14 15 14 14 13 13 11 12 12
8 10 7 7 7 6 7 6 6 5 7 8 8 8 9 9 9 10 10 11 11 12 12 13 13 12 13 14 16 17 18 18 18 18 17 17 17 19 19 15 14 14 18 22
7 6 6 7 4 6 6 4 5 7 9 7 11 9 11 12 12 13 14 14 15 18 19 21 23 22 22 22 22 22 21 21 20 20 21 22 24 27 26 28 23 15 24 7
8 7 7 8 8 6 9 13 12 7 5 7 14 16 15 15 18 18 18 20 21 22 20 20 17 18 20 20 19 17 18 17 17 17 16 17 18 18 20 26 29 28 16 32
5 7 9 8 9 9 8 9 7 7 8 17 19 19 20 22 20 20 19 19 19 20 20 18 17 14 14 13 13 14 14 14 14 15 14 15 15 15 14 13 15 25 13 18
6 7 8 11 10 10 12 11 14 9 22 18 14 14 15 17 15 16 16 15 12 11 11 10 9 8 7 6 7 6 6 5 6 5 4 4 5 7 11 15 19 20 19 15
8 10 4 11 13 11 15 14 12 27 19 21 20 16 13 11 14 10 8 8 8 7 6 5 4 4 7 9 11 12 13 14 15 14 13 11 10 8 7 5 5 7 13 19
10 12 16 19 16 16 21 30 23 20 13 11 10 9 7 6 7 10 10 10 10 10 11 13 12 11 9 7 5 4 4 4 5 5 6 7 9 12 15 16 15 13 9 6
27 19 16 23 28 28 17 13 11 11 11 13 13 13 14 12 8 6 5 5 5 5 6 7 8 9 10 9 10 10 10 10 9 9 8 8 8 8 8 7 6 7 10 15
24 24 23 21 15 10 11 15 17 15 11 6 5 8 9 8 7 7 7 7 7 8 8 8 8 8 8 8 8 8 9 9 9 9 9 10 11 12 13 11 9 8 8 8
21 20 16 15 18 18 12 7 5 9 9 5 4 4 6 8 10 13 19 24 28 30 32 34 34 34 33 32 30 30 30 30 30 29 28 27 25 19 13 8 7 8 11 14
16 18 18 10 5 7 10 9 3 6 7 8 11 15 20 26 30 27 22 20 19 19 19 20 20 21 22 23 23 22 23 23 24 25 27 27 28 27 28 28 28 28 24 16
Height
5733 5736 5740 5739 5740 5744 5748 5751 5753 5754 5756 5758 5757 5759 5761 5762 5763 5764 5765 5767 5767 5768 5769 5770 5770 5770 5770 5771 5772 5772 5773 5773 5773 5774 5774 5775 5775 5775 5776 5777 5778 5779 5779 5780
5728 5732 5732 5734 5736 5739 5741 5745 5747 5747 5749 5751 5751 5752 5753 5755 5756 5757 5758 5759 5760 5760 5761 5762 5762 5762 5762 5762 5762 5763 5764 5764 5764 5765 5766 5766 5766 5767 5767 5768 5769 5769 5769 5770
5721 5726 5727 5729 5730 5732 5735 5737 5740 5739 5741 5742 5745 5745 5745 5746 5748 5749 5750 5750 5751 5751 5752 5752 5753 5753 5753 5753 5753 5753 5754 5754 5755 5755 5755 5756 5756 5756 5757 5758 5759 5760 5761 5762
5715 5718 5721 5722 5724 5726 5728 5730 5731 5732 5733 5734 5736 5735 5737 5738 5739 5740 5741 5741 5742 5742 5742 5742 5742 5743 5743 5743 5743 5743 5743 5743 5743 5744 5745 5745 5745 5745 5746 5746 5748 5749 5750 5751
5709 5711 5714 5715 5716 5717 5719 5721 5722 5723 5724 5724 5726 5726 5725 5728 5729 5729 5730 5731 5731 5731 5731 5731 5731 5731 5731 5731 5732 5731 5731 5731 5731 5731 5732 5732 5732 5733 5733 5734 5736 5737 5738 5739
5700 5702 5705 5707 5707 5708 5710 5711 5712 5712 5712 5713 5715 5715 5712 5717 5719 5718 5718 5718 5719 5719 5719 5719 5719 5719 5719 5719 5719 5719 5719 5719 5719 5719 5719 5719 5719 5720 5720 5721 5722 5724 5725 5726
5692 5693 5696 5698 5699 5700 5701 5701 5701 5701 5700 5701 5704 5703 5702 5704 5705 5705 5705 5704 5704 5704 5705 5705 5705 5705 5705 5705 5705 5705 5705 5706 5706 5706 5706 5705 5705 5705 5705 5706 5708 5709 5710 5710
5683 5685 5687 5689 5690 5691 5691 5692 5692 5690 5689 5688 5689 5688 5693 5693 5691 5690 5689 5689 5689 5688 5689 5689 5690 5690 5690 5690 5690 5691 5690 5690 5690 5690 5690 5690 5690 5690 5690 5690 5692 5693 5695 5695
5675 5675 5677 5678 5680 5682 5682 5681 5682 5679 5678 5676 5675 5676 5677 5679 5677 5675 5674 5673 5672 5673 5672 5672 5672 5672 5672 5672 5672 5672 5672 5672 5672 5672 5672 5673 5674 5673 5673 5673 5674 5675 5677 5678
5665 5666 5666 5667 5669 5669 5670 5670 5669 5667 5665 5663 5661 5661 5661 5663 5662 5661 5659 5658 5658 5657 5657 5656 5656 5656 5655 5655 5654 5654 5653 5652 5652 5653 5653 5653 5654 5654 5654 5654 5654 5655 5657 5659
5655 5655 5657 5656 5657 5657 5658 5657 5657 5655 5654 5651 5650 5647 5648 5647 5645 5645 5644 5643 5641 5640 5639 5639 5638 5637 5637 5637 5636 5636 5635 5634 5633 5633 5632 5633 5633 5633 5634 5634 5634 5635 5637 5638
5644 5644 5645 5646 5646 5646 5646 5646 5645 5643 5642 5641 5637 5636 5634 5632 5630 5628 5626 5625 5623 5622 5620 5618 5617 5616 5615 5615 5615 5614 5614 5613 5613 5612 5612 5612 5611 5611 5612 5612 5613 5613 5614 5615
5635 5634 5635 5636 5637 5636 5635 5634 5632 5630 5629 5627 5624 5624 5619 5616 5614 5612 5609 5607 5605 5603 5600 5598 5596 5594 5592 5591 5590 5589 5588 5588 5588 5588 5587 5587 5587 5587 5587 5587 5588 5589 5590 5591
5624 5624 5624 5624 5623 5623 5622 5620 5618 5616 5614 5612 5608 5606 5602 5599 5595 5593 5590 5587 5584 5580 5578 5574 5572 5569 5566 5564 5562 5561 5560 5559 5558 5558 5559 5559 5559 5559 5559 5560 5561 5562 5564 5566
5614 5614 5613 5611 5610 5609 5607 5605 5603 5600 5597 5593 5591 5587 5583 5580 5576 5572 5568 5563 5561 5557 5553 5550 5547 5543 5540 5537 5534 5532 5530 5529 5527 5526 5526 5527 5527 5527 5528 5529 5531 5533 5534 5537
5603 5601 5600 5599 5597 5595 5592 5590 5587 5583 5580 5577 5572 5569 5564 5560 5556 5552 5548 5542 5537 5533 5529 5526 5521 5517 5514 5511 5508 5504 5501 5500 5498 5496 5494 5494 5494 5495 5497 5497 5499 5501 5503 5506
5592 5589 5587 5585 5583 5580 5577 5573 5569 5565 5561 5557 5552 5547 5542 5537 5533 5528 5522 5518 5513 5509 5505 5501 5497 5494 5490 5487 5484 5481 5478 5475 5472 5470 5467 5466 5465 5464 5465 5467 5469 5470 5474 5477
5579 5577 5574 5571 5568 5564 5560 5555 5551 5546 5541 5535 5529 5524 5519 5513 5507 5504 5499 5494 5490 5487 5482 5478 5475 5471 5467 5465 5463 5459 5455 5452 5449 5447 5444 5442 5441 5440 5440 5439 5441 5442 5445 5447
5566 5562 5558 5555 5551 5549 5544 5538 5533 5527 5523 5515 5509 5504 5499 5494 5489 5484 5480 5475 5472 5468 5463 5460 5456 5451 5447 5443 5441 5438 5435 5431 5428 5426 5423 5420 5419 5418 5417 5417 5417 5418 5420 5421
5551 5547 5545 5539 5534 5530 5526 5520 5514 5507 5506 5498 5491 5486 5481 5476 5473 5467 5463 5458 5455 5450 5446 5443 5438 5434 5429 5424 5422 5419 5415 5412 5409 5406 5403 5400 5398 5397 5395 5394 5394 5394 5395 5397
5533 5529 5526 5519 5514 5511 5506 5499 5493 5490 5488 5479 5475 5471 5466 5462 5457 5454 5448 5442 5437 5433 5429 5423 5419 5414 5409 5404 5400 5397 5393 5389 5387 5384 5382 5380 5376 5374 5373 5373 5373 5372 5372 5372
5517 5514 5508 5502 5496 5494 5490 5484 5480 5475 5470 5465 5461 5456 5452 5447 5441 5436 5430 5425 5419 5414 5409 5403 5399 5393 5387 5382 5379 5375 5371 5367 5364 5361 5359 5356 5353 5351 5349 5348 5348 5347 5348 5349
5503 5497 5494 5490 5485 5478 5475 5471 5467 5462 5458 5453 5448 5442 5437 5432 5425 5419 5413 5406 5399 5393 5387 5381 5376 5371 5365 5359 5354 5350 5346 5342 5339 5336 5333 5329 5327 5325 5323 5323 5322 5322 5321 5322
5485 5481 5479 5475 5473 5468 5464 5461 5456 5451 5446 5440 5435 5429 5422 5416 5408 5401 5393 5385 5379 5372 5365 5359 5353 5346 5340 5334 5329 5323 5319 5316 5313 5309 5305 5301 5299 5296 5294 5294 5294 5295 5295 5296
5474 5472 5469 5466 5464 5460 5456 5452 5447 5440 5434 5428 5421 5413 5405 5398 5389 5381 5372 5363 5356 5349 5343 5336 5329 5322 5316 5310 5302 5296 5292 5288 5284 5279 5274 5271 5268 5266 5265 5264 5263 5263 5264 5265
5466 5465 5463 5459 5456 5452 5447 5442 5437 5429 5421 5413 5404 5395 5384 5376 5368 5360 5351 5344 5338 5331 5324 5317 5309 5303 5297 5290 5283 5277 5271 5266 5261 5255 5250 5245 5241 5238 5235 5233 5231 5229 5230 5231